Notices

What's New in latest Release from April 7th, 2021:

- Updated Glossary, including Speed of Maximum Gust, and Total Hourly Precipitation

- Updated national and regional climate services offices contacts and prices information

- Addition of station inventory lists for 1981-2010, 1971-2000, and 1961-1990 Normals.

If you haven't already, please take our survey and provide feedback about our website: https://eccc.sondage-survey.ca/f/LanguageSelection.aspx?s=442ca660-fcf1-47c0-95a9-59707d6fd709

Hourly Data Report for February 24, 2004

SHERBROOKE A
QUEBEC

45°26'00.000" N
71°41'00.000" W
241.40 m
7028124
71610
YSC

Download Data

Hourly Data (February 2004)
Hourly Data Report for February 24, 2004
TIME
LST
Temp Definition
°C
Dew Point Definition
°C
Rel Hum Definition
%
Precip. Amount Definition
mm

Wind Dir Definition
10's deg

Wind Spd Definition
km/h
Visibility Definition
km
Stn Press Definition
kPa
Hmdx Definition


Wind Chill Definition


Weather Definition


00:00 -18.9 -22.9 71     0 15.0 99.10      
01:00 -20.5 -24.1 73     0 15.0 99.06      
02:00 -19.2 -23.8 67   19 4 15.0 99.08   -23  
03:00 -22.8 -27.6 65   23 6 15.0 99.08   -28  
04:00 -16.5 -20.9 69   23 13 15.0 99.08   -24  
05:00 -22.7 -27.4 65   24 6 15.0 99.06   -28  
06:00 -23.9 -28.9 63     0 15.0 99.06      
07:00 -25.1 -30.5 61   17 4 15.0 99.08   -29  
08:00 -20.2 -25.3 64   6 4 24.1 99.09   -24 Clear
09:00 -14.9 -19.1 70   24 7 24.1 99.05   -20 Clear
10:00 -12.6 -17.2 68   22 9 24.1 98.99   -18 Mainly Clear
11:00 -10.3 -18.0 53   29 9 24.1 98.93   -15 Clear
12:00 -8.8 -17.1 51   29 13 24.1 98.87   -15 Clear
13:00 -7.6 -16.3 50   29 20 24.1 98.79   -15 Clear
14:00 -6.6 -16.0 47   29 13 24.1 98.72   -12 Mainly Clear
15:00 -6.3 -16.0 46   27 17 24.1 98.69   -13 Mainly Clear
16:00 -6.4 -16.5 45   28 19 24.1 98.67   -13 Mainly Clear
17:00 -7.1 -17.4 44   30 11 24.1 98.68   -12 Mainly Clear
18:00 -11.1 -18.9 53   28 9 15.0 98.71   -16  
19:00 -12.7 -18.9 60   27 4 15.0 98.74   -15  
20:00 -12.9 -19.1 60   26 7 15.0 98.77   -17  
21:00 -14.4 -20.5 60   26 6 15.0 98.75   -19  
22:00 -16.9 -20.8 72   19 4 15.0 98.74   -20  
23:00 -19.9 -23.5 73   9 4 15.0 98.73   -23  

Notes on Data Quality.

Legend

  • E = Estimated
  • M = Missing
  • NA = Not Available*
  • [empty] = Indicates an unobserved value
Date modified: